Location: Fort Worth, Tx
(32.7431°N, 97.3695°W)
Time: 12:11:50
(UTC-04:00)

XW-2F - Visible Passes

Search period start: 19 September 2020 00:00
Search period end: 29 September 2020 00:00
Orbit: 500 x 522 km, 97.5° (Epoch: 19 September)

Date Brightness Start Highest point End Pass type
(mag) Time Alt. Az. Time Alt. Az. Time Alt. Az.
20 Sep ? 07:45:50 10° NE 07:48:32 19° E 07:51:14 10° SE visible
21 Sep ? 07:31:03 10° ENE 07:32:21 11° E 07:33:38 10° ESE visible
22 Sep ? 20:57:44 10° WSW 20:59:20 12° W 21:00:57 10° WNW visible
26 Sep ? 07:43:16 10° NE 07:45:51 17° E 07:48:24 10° SE visible
27 Sep ? 07:28:49 10° E 07:29:38 11° E 07:30:27 10° ESE visible
28 Sep ? 20:54:42 10° SW 20:56:36 14° W 20:58:31 10° WNW visible
